• In Romania
  • List of Countries
  • For 7 days
  • Water Temperature
  • Satellite Maps
  • Weather Map
  • Weather Widgets
  • user-avatar
    Login

    Hourly Weather Kotagiri

    Today, 21 October, Saturday

    Time Temperature Precipitation Wind Pressure Humidity
    00:00 +15°C° 0 mm 2 mps 618 mmHg 83%
    01:00 +15°C° 0 mm 2 mps 618 mmHg 81%
    02:00 +15°C° 0 mm 2 mps 617 mmHg 79%
    03:00 +15°C° 0 mm 1 mps 617 mmHg 78%
    04:00 +14°C° 0 mm 1 mps 617 mmHg 77%
    05:00 +14°C° 0 mm 1 mps 617 mmHg 77%
    06:00 +16°C° 0 mm 1 mps 618 mmHg 73%
    07:00 +18°C° 0 mm 1 mps 619 mmHg 68%
    08:00 +20°C° 0 mm 1 mps 620 mmHg 63%
    09:00 +21°C° 0 mm 1 mps 621 mmHg 59%
    10:00 +21°C° 0 mm 2 mps 621 mmHg 55%
    11:00 +24°C° 0 mm 2 mps 621 mmHg 51%
    12:00 +23°C° 0.5 mm 2 mps 621 mmHg 54%
    13:00 +23°C° 0.5 mm 2 mps 620 mmHg 57%
    14:00 +23°C° 0.5 mm 2 mps 619 mmHg 59%
    15:00 +21°C° 0.3 mm 2 mps 619 mmHg 65%
    16:00 +20°C° 0.3 mm 2 mps 619 mmHg 70%
    17:00 +19°C° 0.3 mm 2 mps 618 mmHg 75%
    18:00 +18°C° 0.1 mm 2 mps 618 mmHg 77%
    19:00 +18°C° 0.1 mm 2 mps 618 mmHg 79%
    20:00 +17°C° 0.1 mm 2 mps 619 mmHg 80%
    21:00 +17°C° 0 mm 2 mps 619 mmHg 82%
    22:00 +16°C° 0 mm 2 mps 619 mmHg 84%
    23:00 +16°C° 0 mm 2 mps 619 mmHg 85%

    Tomorrow, 22 October, Sunday

    Time Temperature Precipitation Wind Pressure Humidity
    00:00 +16°C° 0 mm 2 mps 618 mmHg 86%
    01:00 +15°C° 0 mm 1 mps 618 mmHg 87%
    02:00 +15°C° 0 mm 1 mps 617 mmHg 88%
    03:00 +15°C° 0 mm 1 mps 617 mmHg 88%
    04:00 +15°C° 0 mm 1 mps 617 mmHg 88%
    05:00 +14°C° 0 mm 1 mps 617 mmHg 88%
    06:00 +16°C° 0 mm 1 mps 618 mmHg 82%
    07:00 +18°C° 0 mm 1 mps 619 mmHg 76%
    08:00 +19°C° 0 mm 1 mps 620 mmHg 70%
    09:00 +20°C° 0 mm 2 mps 621 mmHg 63%
    10:00 +23°C° 0 mm 2 mps 621 mmHg 57%
    11:00 +24°C° 0 mm 2 mps 622 mmHg 50%
    12:00 +24°C° 0 mm 2 mps 621 mmHg 50%
    13:00 +24°C° 0 mm 3 mps 621 mmHg 50%
    14:00 +24°C° 0 mm 3 mps 620 mmHg 49%
    15:00 +22°C° 0 mm 3 mps 620 mmHg 55%
    16:00 +21°C° 0 mm 2 mps 619 mmHg 61%
    17:00 +19°C° 0 mm 2 mps 619 mmHg 67%
    18:00 +18°C° 0 mm 2 mps 619 mmHg 71%
    19:00 +17°C° 0 mm 2 mps 619 mmHg 75%
    20:00 +16°C° 0 mm 2 mps 619 mmHg 79%
    21:00 +16°C° 0 mm 2 mps 619 mmHg 80%
    22:00 +15°C° 0 mm 2 mps 619 mmHg 80%
    23:00 +15°C° 0 mm 2 mps 619 mmHg 81%

    Day after tomorrow, 23 October, Monday

    Time Temperature Precipitation Wind Pressure Humidity
    00:00 +15°C° 0 mm 2 mps 618 mmHg 79%
    01:00 +14°C° 0 mm 2 mps 618 mmHg 78%
    02:00 +14°C° 0 mm 1 mps 617 mmHg 76%
    03:00 +14°C° 0 mm 1 mps 617 mmHg 74%
    04:00 +13°C° 0 mm 1 mps 617 mmHg 73%
    05:00 +13°C° 0 mm 1 mps 617 mmHg 71%
    06:00 +15°C° 0 mm 1 mps 618 mmHg 66%
    07:00 +16°C° 0 mm 1 mps 619 mmHg 60%
    08:00 +19°C° 0 mm 1 mps 620 mmHg 54%
    09:00 +21°C° 0 mm 1 mps 621 mmHg 49%
    10:00 +22°C° 0 mm 1 mps 621 mmHg 44%
    11:00 +24°C° 0 mm 1 mps 622 mmHg 39%
    12:00 +24°C° 0 mm 2 mps 621 mmHg 38%
    13:00 +25°C° 0 mm 2 mps 621 mmHg 38%
    14:00 +25°C° 0 mm 2 mps 620 mmHg 37%
    15:00 +24°C° 0 mm 2 mps 620 mmHg 43%
    16:00 +22°C° 0 mm 1 mps 619 mmHg 50%
    17:00 +21°C° 0 mm 1 mps 619 mmHg 56%
    18:00 +19°C° 0 mm 1 mps 619 mmHg 59%
    19:00 +18°C° 0 mm 1 mps 619 mmHg 62%
    20:00 +16°C° 0 mm 2 mps 619 mmHg 65%
    21:00 +15°C° 0 mm 1 mps 619 mmHg 66%
    22:00 +15°C° 0 mm 1 mps 619 mmHg 67%
    23:00 +15°C° 0 mm 1 mps 619 mmHg 68%

    24 October, Tuesday

    Time Temperature Precipitation Wind Pressure Humidity
    00:00 +14°C° 0 mm 1 mps 618 mmHg 68%
    01:00 +14°C° 0 mm 1 mps 618 mmHg 68%
    02:00 +14°C° 0 mm 1 mps 617 mmHg 69%
    03:00 +14°C° 0 mm 1 mps 617 mmHg 69%
    04:00 +13°C° 0 mm 1 mps 617 mmHg 69%
    05:00 +13°C° 0 mm 1 mps 617 mmHg 69%
    06:00 +15°C° 0 mm 1 mps 618 mmHg 64%
    07:00 +18°C° 0 mm 1 mps 620 mmHg 58%
    08:00 +20°C° 0 mm 1 mps 621 mmHg 53%
    09:00 +21°C° 0 mm 1 mps 621 mmHg 49%
    10:00 +23°C° 0 mm 1 mps 622 mmHg 46%
    11:00 +25°C° 0 mm 1 mps 622 mmHg 42%
    12:00 +25°C° 0 mm 1 mps 622 mmHg 43%
    13:00 +25°C° 0 mm 1 mps 621 mmHg 44%
    14:00 +25°C° 0 mm 2 mps 620 mmHg 44%
    15:00 +24°C° 0.2 mm 1 mps 620 mmHg 51%
    16:00 +23°C° 0.2 mm 1 mps 620 mmHg 58%
    17:00 +21°C° 0.2 mm 1 mps 619 mmHg 65%
    18:00 +20°C° 0.1 mm 1 mps 619 mmHg 69%
    19:00 +19°C° 0.1 mm 1 mps 620 mmHg 72%
    20:00 +18°C° 0.1 mm 1 mps 620 mmHg 75%
    21:00 +18°C° 0 mm 1 mps 620 mmHg 77%
    22:00 +16°C° 0 mm 1 mps 620 mmHg 78%
    23:00 +16°C° 0 mm 1 mps 620 mmHg 79%

    25 October, Wednesday

    Time Temperature Precipitation Wind Pressure Humidity
    00:00 +16°C° 0 mm 1 mps 619 mmHg 80%
    01:00 +16°C° 0 mm 1 mps 619 mmHg 81%
    02:00 +15°C° 0 mm 1 mps 618 mmHg 82%
    03:00 +15°C° 0 mm 1 mps 618 mmHg 83%
    04:00 +15°C° 0 mm 1 mps 618 mmHg 83%
    05:00 +15°C° 0 mm 1 mps 619 mmHg 84%
    06:00 +16°C° 0 mm 1 mps 620 mmHg 79%
    07:00 +18°C° 0 mm 1 mps 621 mmHg 74%
    08:00 +19°C° 0 mm 2 mps 622 mmHg 68%
    09:00 +20°C° 0 mm 2 mps 622 mmHg 61%
    10:00 +23°C° 0 mm 2 mps 622 mmHg 53%
    11:00 +24°C° 0 mm 3 mps 622 mmHg 46%
    12:00 +24°C° 0 mm 3 mps 622 mmHg 45%
    13:00 +24°C° 0 mm 3 mps 621 mmHg 45%
    14:00 +24°C° 0 mm 3 mps 621 mmHg 45%
    15:00 +23°C° 0 mm 2 mps 620 mmHg 50%
    16:00 +21°C° 0 mm 2 mps 620 mmHg 56%
    17:00 +20°C° 0 mm 2 mps 620 mmHg 61%
    18:00 +19°C° 0 mm 2 mps 620 mmHg 65%
    19:00 +19°C° 0 mm 1 mps 620 mmHg 68%
    20:00 +18°C° 0 mm 1 mps 620 mmHg 72%
    21:00 +16°C° 0 mm 1 mps 620 mmHg 74%
    22:00 +16°C° 0 mm 1 mps 620 mmHg 77%
    23:00 +16°C° 0 mm 1 mps 620 mmHg 80%

    26 October, Thursday

    Time Temperature Precipitation Wind Pressure Humidity
    00:00 +15°C° 0 mm 1 mps 619 mmHg 82%
    01:00 +15°C° 0 mm 1 mps 619 mmHg 84%
    02:00 +14°C° 0 mm 1 mps 618 mmHg 86%
    03:00 +14°C° 0 mm 1 mps 618 mmHg 87%
    04:00 +14°C° 0 mm 1 mps 618 mmHg 87%
    05:00 +13°C° 0 mm 1 mps 619 mmHg 87%
    06:00 +15°C° 0 mm 1 mps 620 mmHg 78%
    07:00 +16°C° 0 mm 1 mps 621 mmHg 68%
    08:00 +19°C° 0 mm 1 mps 622 mmHg 58%
    09:00 +19°C° 0 mm 2 mps 622 mmHg 52%
    10:00 +21°C° 0 mm 2 mps 622 mmHg 45%
    11:00 +23°C° 0 mm 2 mps 623 mmHg 39%
    12:00 +24°C° 0 mm 2 mps 622 mmHg 39%
    13:00 +24°C° 0 mm 2 mps 622 mmHg 38%
    14:00 +25°C° 0 mm 2 mps 621 mmHg 38%
    15:00 +23°C° 0 mm 2 mps 621 mmHg 44%
    16:00 +22°C° 0 mm 1 mps 620 mmHg 50%
    17:00 +21°C° 0 mm 1 mps 620 mmHg 56%
    18:00 +20°C° 0 mm 1 mps 620 mmHg 59%
    19:00 +19°C° 0 mm 1 mps 620 mmHg 62%
    20:00 +16°C° 0 mm 1 mps 621 mmHg 65%
    21:00 +16°C° 0.1 mm 1 mps 620 mmHg 66%
    22:00 +16°C° 0.1 mm 1 mps 620 mmHg 68%
    23:00 +16°C° 0.1 mm 1 mps 620 mmHg 69%
    Show more